| time (UTC) | temp F | wind direction | speed knots | gust knots | rain 1hr in | rain 24hr in | rain mn in | humidity % | barometer mb |
| 20260904191608 | 75 | 290 | 2.6 | 8.7 | 0.00 | 0.00 | 0.00 | 70 | 1013.6 |
| 20260904191038 | 74 | 306 | 3.5 | 8.7 | 0.00 | 0.00 | 0.00 | 71 | 1013.7 |
| 20260904190536 | 74 | 252 | 2.6 | 7.0 | 0.00 | 0.00 | 0.00 | 70 | 1013.8 |
| 20260904190106 | 74 | 324 | 3.5 | 7.0 | 0.00 | 0.00 | 0.00 | 71 | 1013.9 |
| 20260904185531 | 74 | 294 | 2.6 | 7.0 | 0.00 | 0.00 | 0.00 | 72 | 1013.9 |
| 20260904185032 | 74 | 239 | 2.6 | 7.0 | 0.00 | 0.00 | 0.00 | 72 | 1014.0 |
| 20260904184611 | 74 | 245 | 3.5 | 7.0 | 0.00 | 0.00 | 0.00 | 72 | 1014.1 |
| 20260904184034 | 73 | 274 | 2.6 | 6.1 | 0.00 | 0.00 | 0.00 | 72 | 1014.1 |
| 20260904183532 | 73 | 203 | 2.6 | 7.8 | 0.00 | 0.00 | 0.00 | 72 | 1014.0 |
| 20260904183057 | 73 | 266 | 2.6 | 7.8 | 0.00 | 0.00 | 0.00 | 72 | 1014.0 |
| 20260904182536 | 73 | 239 | 1.7 | 6.1 | 0.00 | 0.00 | 0.00 | 73 | 1014.1 |
| 20260904182035 | 73 | 253 | 2.6 | 6.1 | 0.00 | 0.00 | 0.00 | 73 | 1014.1 |
| 20260904181603 | 72 | 214 | 2.6 | 6.1 | 0.00 | 0.00 | 0.00 | 73 | 1014.1 |
| 20260904181045 | 72 | 302 | 2.6 | 7.8 | 0.00 | 0.00 | 0.00 | 74 | 1014.0 |
| 20260904180537 | 72 | 284 | 2.6 | 7.8 | 0.00 | 0.00 | 0.00 | 75 | 1014.0 |
| 20260904180053 | 72 | 295 | 3.5 | 7.8 | 0.00 | 0.00 | 0.00 | 74 | 1014.1 |
| 20260904175532 | 72 | 305 | 2.6 | 5.2 | 0.00 | 0.00 | 0.00 | 74 | 1014.1 |
| 20260904175035 | 71 | 250 | 1.7 | 7.0 | 0.00 | 0.00 | 0.00 | 74 | 1014.2 |
| 20260904174552 | 71 | 237 | 2.6 | 7.0 | 0.00 | 0.00 | 0.00 | 74 | 1014.2 |
| 20260904174037 | 71 | 269 | 1.7 | 7.0 | 0.00 | 0.00 | 0.00 | 75 | 1014.2 |
| 20260904173532 | 71 | 208 | 2.6 | 6.1 | 0.00 | 0.00 | 0.00 | 75 | 1014.2 |
| 20260904173110 | 71 | 284 | 1.7 | 5.2 | 0.00 | 0.00 | 0.00 | 75 | 1014.1 |
| 20260904172535 | 70 | 264 | 0.9 | 5.2 | 0.00 | 0.00 | 0.00 | 75 | 1014.2 |
| 20260904172035 | 70 | 0 | 1.7 | 6.1 | 0.00 | 0.00 | 0.00 | 75 | 1014.2 |
| 20260904171552 | 70 | 258 | 2.6 | 6.1 | 0.00 | 0.00 | 0.00 | 76 | 1014.2 |
| 20260904171032 | 70 | 252 | 1.7 | 6.1 | 0.00 | 0.00 | 0.00 | 78 | 1014.3 |
| 20260904170535 | 69 | 321 | 2.6 | 6.1 | 0.00 | 0.00 | 0.00 | 77 | 1014.4 |
| 20260904170053 | 69 | 294 | 1.7 | 5.2 | 0.00 | 0.00 | 0.00 | 78 | 1014.3 |
| 20260904165537 | 69 | 241 | 2.6 | 5.2 | 0.00 | 0.00 | 0.00 | 79 | 1014.1 |
| 20260904165033 | 69 | 233 | 1.7 | 5.2 | 0.00 | 0.00 | 0.00 | 79 | 1014.1 |
| 20260904164602 | 68 | 290 | 1.7 | 5.2 | 0.00 | 0.00 | 0.00 | 79 | 1014.1 |
| 20260904164037 | 68 | 262 | 1.7 | 5.2 | 0.00 | 0.00 | 0.00 | 79 | 1014.1 |
| 20260904163532 | 68 | 243 | 0.0 | 4.3 | 0.00 | 0.00 | 0.00 | 80 | 1014.0 |
| 20260904163057 | 68 | 236 | 0.0 | 3.5 | 0.00 | 0.00 | 0.00 | 80 | 1013.9 |
| 20260904162532 | 67 | 225 | 1.7 | 3.5 | 0.00 | 0.00 | 0.00 | 80 | 1013.8 |
| 20260904162034 | 67 | 278 | 0.9 | 3.5 | 0.00 | 0.00 | 0.00 | 81 | 1013.8 |
| 20260904161555 | 67 | 0 | 0.9 | 3.5 | 0.00 | 0.00 | 0.00 | 81 | 1013.9 |
| 20260904161034 | 67 | 225 | 0.9 | 3.5 | 0.00 | 0.00 | 0.00 | 82 | 1013.8 |
| 20260904160532 | 66 | 250 | 0.0 | 3.5 | 0.00 | 0.00 | 0.00 | 82 | 1013.8 |
| 20260904160050 | 66 | 0 | 0.9 | 3.5 | 0.00 | 0.00 | 0.00 | 82 | 1013.8 |
| 20260904155535 | 66 | 0 | 0.0 | 3.5 | 0.00 | 0.00 | 0.00 | 83 | 1013.7 |
| 20260904155032 | 66 | 284 | 0.9 | 2.6 | 0.00 | 0.00 | 0.00 | 83 | 1013.6 |
| 20260904154620 | 65 | 0 | 0.0 | 1.7 | 0.00 | 0.00 | 0.00 | 83 | 1013.6 |
| 20260904154032 | 65 | 0 | 0.0 | 1.7 | 0.00 | 0.00 | 0.00 | 84 | 1013.5 |
| 20260904153534 | 65 | 0 | 0.0 | 0.9 | 0.00 | 0.00 | 0.00 | 84 | 1013.4 |
| 20260904153056 | 65 | 0 | 0.0 | 0.9 | 0.00 | 0.00 | 0.00 | 85 | 1013.5 |
| 20260904152535 | 65 | 0 | 0.0 | 1.7 | 0.00 | 0.00 | 0.00 | 85 | 1013.4 |
| 20260904152031 | 65 | 0 | 0.0 | 1.7 | 0.00 | 0.00 | 0.00 | 85 | 1013.4 |
| 20260904151606 | 65 | 0 | 0.0 | 1.7 | 0.00 | 0.00 | 0.00 | 86 | 1013.4 |
| 20260904151033 | 64 | 0 | 0.0 | 1.7 | 0.00 | 0.00 | 0.00 | 86 | 1013.4 |
| 20260904150531 | 64 | 0 | 0.0 | 1.7 | 0.00 | 0.00 | 0.00 | 87 | 1013.4 |
| 20260904150059 | 64 | 0 | 0.0 | 1.7 | 0.00 | 0.00 | 0.00 | 87 | 1013.4 |
| 20260904145532 | 64 | 0 | 0.0 | 0.9 | 0.00 | 0.00 | 0.00 | 88 | 1013.4 |
| 20260904145032 | 63 | 0 | 0.0 | 0.9 | 0.00 | 0.00 | 0.00 | 88 | 1013.4 |
| 20260904144558 | 63 | 0 | 0.0 | 0.9 | 0.00 | 0.00 | 0.00 | 88 | 1013.4 |
| 20260904144035 | 63 | 0 | 0.0 | 0.9 | 0.00 | 0.00 | 0.00 | 88 | 1013.3 |
| 20260904143532 | 63 | 0 | 0.0 | 0.9 | 0.00 | 0.00 | 0.00 | 88 | 1013.3 |
| 20260904143054 | 63 | 0 | 0.0 | 0.0 | 0.00 | 0.00 | 0.00 | 88 | 1013.3 |
| 20260904142538 | 63 | 0 | 0.0 | 0.0 | 0.00 | 0.00 | 0.00 | 88 | 1013.2 |
| 20260904142032 | 62 | 0 | 0.0 | 0.0 | 0.00 | 0.00 | 0.00 | 88 | 1013.2 |
| 20260904141624 | 62 | 0 | 0.0 | 0.0 | 0.00 | 0.00 | 0.00 | 88 | 1013.1 |
| 20260904141035 | 62 | 0 | 0.0 | 0.9 | 0.00 | 0.00 | 0.00 | 88 | 1013.2 |
| 20260904140532 | 62 | 0 | 0.0 | 0.9 | 0.00 | 0.00 | 0.00 | 88 | 1013.1 |
| 20260904140109 | 62 | 0 | 0.0 | 0.0 | 0.00 | 0.00 | 0.00 | 88 | 1013.0 |
| 20260904135532 | 62 | 0 | 0.0 | 0.0 | 0.00 | 0.00 | 0.00 | 88 | 1013.0 |
| 20260904135035 | 62 | 0 | 0.0 | 0.0 | 0.00 | 0.00 | 0.00 | 88 | 1012.9 |
| 20260904134616 | 62 | 0 | 0.0 | 0.9 | 0.00 | 0.00 | 0.00 | 88 | 1012.9 |
| 20260904134032 | 62 | 0 | 0.0 | 0.9 | 0.00 | 0.00 | 0.00 | 88 | 1012.8 |
| 20260904133531 | 62 | 0 | 0.0 | 0.0 | 0.00 | 0.00 | 0.00 | 88 | 1012.8 |
| 20260904133108 | 62 | 0 | 0.0 | 0.0 | 0.00 | 0.00 | 0.00 | 88 | 1012.7 |
| 20260904132535 | 62 | 0 | 0.0 | 0.0 | 0.00 | 0.00 | 0.00 | 87 | 1012.8 |
| 20260904132034 | 62 | 0 | 0.0 | 0.0 | 0.00 | 0.00 | 0.00 | 87 | 1012.7 |
| 20260904131614 | 62 | 0 | 0.0 | 0.0 | 0.00 | 0.00 | 0.00 | 87 | 1012.8 |
| 20260904131036 | 62 | 0 | 0.0 | 0.0 | 0.00 | 0.00 | 0.00 | 87 | 1012.7 |
| 20260904130532 | 62 | 0 | 0.0 | 0.0 | 0.00 | 0.00 | 0.00 | 87 | 1012.7 |
| 20260904125533 | 62 | 0 | 0.0 | 0.9 | 0.00 | 0.00 | 0.00 | 87 | 1012.6 |
| 20260904125035 | 62 | 0 | 0.0 | 0.9 | 0.00 | 0.00 | 0.00 | 87 | 1012.7 |
| 20260904124602 | 62 | 0 | 0.0 | 0.0 | 0.00 | 0.00 | 0.00 | 87 | 1012.7 |
| 20260904124034 | 63 | 0 | 0.0 | 0.0 | 0.00 | 0.00 | 0.00 | 87 | 1012.5 |
| 20260904123535 | 63 | 0 | 0.0 | 0.0 | 0.00 | 0.00 | 0.00 | 87 | 1012.5 |
| 20260904123121 | 63 | 0 | 0.0 | 0.9 | 0.00 | 0.00 | 0.00 | 87 | 1012.5 |
| 20260904122531 | 63 | 0 | 0.0 | 0.9 | 0.00 | 0.00 | 0.00 | 87 | 1012.5 |
| 20260904122031 | 63 | 0 | 0.0 | 0.0 | 0.00 | 0.00 | 0.00 | 87 | 1012.5 |
| 20260904121554 | 63 | 0 | 0.0 | 0.0 | 0.00 | 0.00 | 0.00 | 87 | 1012.5 |
| 20260904121034 | 63 | 0 | 0.0 | 0.0 | 0.00 | 0.00 | 0.00 | 87 | 1012.5 |
| 20260904120530 | 63 | 0 | 0.0 | 0.0 | 0.00 | 0.00 | 0.00 | 87 | 1012.4 |
| 20260904120055 | 63 | 0 | 0.0 | 0.0 | 0.00 | 0.00 | 0.00 | 87 | 1012.4 |
| 20260904115531 | 63 | 0 | 0.0 | 0.0 | 0.00 | 0.00 | 0.00 | 87 | 1012.5 |
| 20260904115035 | 64 | 0 | 0.0 | 0.0 | 0.00 | 0.00 | 0.00 | 87 | 1012.5 |
| 20260904114552 | 64 | 0 | 0.0 | 0.0 | 0.00 | 0.00 | 0.00 | 87 | 1012.6 |
| 20260904114035 | 64 | 0 | 0.0 | 0.0 | 0.00 | 0.00 | 0.00 | 87 | 1012.7 |
| 20260904113533 | 64 | 0 | 0.0 | 0.0 | 0.00 | 0.00 | 0.00 | 87 | 1012.7 |
| 20260904113103 | 64 | 0 | 0.0 | 0.0 | 0.00 | 0.00 | 0.00 | 88 | 1012.7 |
| 20260904112532 | 64 | 0 | 0.0 | 0.0 | 0.00 | 0.00 | 0.00 | 88 | 1012.6 |
| 20260904112035 | 64 | 0 | 0.0 | 0.9 | 0.00 | 0.00 | 0.00 | 88 | 1012.7 |
| 20260904111556 | 64 | 0 | 0.0 | 0.9 | 0.00 | 0.00 | 0.00 | 88 | 1012.7 |
| 20260904111034 | 64 | 0 | 0.0 | 0.9 | 0.00 | 0.00 | 0.00 | 88 | 1012.7 |
| 20260904110534 | 64 | 0 | 0.0 | 0.9 | 0.00 | 0.00 | 0.00 | 88 | 1012.7 |
| 20260904110052 | 64 | 0 | 0.0 | 0.9 | 0.00 | 0.00 | 0.00 | 88 | 1012.7 |
| 20260904105535 | 64 | 0 | 0.0 | 0.9 | 0.00 | 0.00 | 0.00 | 89 | 1012.7 |
| 20260904105034 | 64 | 0 | 0.0 | 0.9 | 0.00 | 0.00 | 0.00 | 89 | 1012.7 |
| 20260904104602 | 64 | 0 | 0.0 | 0.9 | 0.00 | 0.00 | 0.00 | 89 | 1012.7 |
| 20260904104032 | 64 | 0 | 0.0 | 0.9 | 0.00 | 0.00 | 0.00 | 89 | 1012.6 |
| 20260904103531 | 64 | 0 | 0.0 | 0.9 | 0.00 | 0.00 | 0.00 | 89 | 1012.6 |
| 20260904103106 | 63 | 0 | 0.0 | 0.9 | 0.00 | 0.00 | 0.00 | 89 | 1012.5 |
| 20260904102531 | 63 | 0 | 0.0 | 0.9 | 0.00 | 0.00 | 0.00 | 89 | 1012.5 |
| 20260904102032 | 63 | 0 | 0.0 | 0.9 | 0.00 | 0.00 | 0.00 | 89 | 1012.4 |
| 20260904101556 | 63 | 0 | 0.0 | 0.9 | 0.00 | 0.00 | 0.00 | 89 | 1012.4 |
| 20260904101030 | 63 | 0 | 0.0 | 0.9 | 0.00 | 0.00 | 0.00 | 89 | 1012.3 |
| 20260904100535 | 63 | 0 | 0.0 | 0.9 | 0.00 | 0.00 | 0.00 | 89 | 1012.4 |
| 20260904095533 | 63 | 0 | 0.0 | 0.9 | 0.00 | 0.00 | 0.00 | 88 | 1012.4 |
| 20260904095031 | 63 | 0 | 0.0 | 0.9 | 0.00 | 0.00 | 0.00 | 88 | 1012.4 |
| 20260904094553 | 63 | 0 | 0.0 | 0.9 | 0.00 | 0.00 | 0.00 | 88 | 1012.4 |
| 20260904094031 | 63 | 0 | 0.0 | 0.9 | 0.00 | 0.00 | 0.00 | 88 | 1012.4 |
| 20260904093533 | 63 | 0 | 0.0 | 0.9 | 0.00 | 0.00 | 0.00 | 88 | 1012.3 |
| 20260904093100 | 63 | 0 | 0.0 | 0.9 | 0.00 | 0.00 | 0.00 | 88 | 1012.3 |
| 20260904092531 | 63 | 0 | 0.0 | 0.9 | 0.00 | 0.00 | 0.00 | 88 | 1012.3 |
| 20260904092031 | 63 | 0 | 0.0 | 0.0 | 0.00 | 0.00 | 0.00 | 87 | 1012.2 |
| 20260904091556 | 63 | 0 | 0.0 | 0.0 | 0.00 | 0.00 | 0.00 | 87 | 1012.3 |
| 20260904091032 | 63 | 0 | 0.0 | 0.0 | 0.00 | 0.00 | 0.00 | 87 | 1012.3 |
| 20260904090532 | 63 | 0 | 0.0 | 0.9 | 0.00 | 0.00 | 0.00 | 87 | 1012.2 |
| 20260904090054 | 63 | 0 | 0.0 | 0.9 | 0.00 | 0.00 | 0.00 | 87 | 1012.2 |
| 20260904085534 | 63 | 0 | 0.0 | 0.0 | 0.00 | 0.00 | 0.00 | 87 | 1012.3 |
| 20260904085033 | 63 | 0 | 0.0 | 0.0 | 0.00 | 0.00 | 0.00 | 87 | 1012.4 |
| 20260904084600 | 63 | 0 | 0.0 | 0.0 | 0.00 | 0.00 | 0.00 | 87 | 1012.4 |
| 20260904084036 | 63 | 0 | 0.0 | 0.0 | 0.00 | 0.00 | 0.00 | 87 | 1012.4 |
| 20260904083537 | 63 | 0 | 0.0 | 0.0 | 0.00 | 0.00 | 0.00 | 87 | 1012.4 |
| 20260904083057 | 63 | 0 | 0.0 | 0.9 | 0.00 | 0.00 | 0.00 | 87 | 1012.5 |
| 20260904082537 | 63 | 0 | 0.0 | 0.9 | 0.00 | 0.00 | 0.00 | 87 | 1012.5 |
| 20260904082035 | 64 | 0 | 0.0 | 0.9 | 0.00 | 0.00 | 0.00 | 87 | 1012.6 |
| 20260904081554 | 64 | 0 | 0.0 | 0.9 | 0.00 | 0.00 | 0.00 | 86 | 1012.6 |
| 20260904081035 | 64 | 0 | 0.0 | 0.0 | 0.00 | 0.00 | 0.00 | 86 | 1012.6 |
| 20260904080537 | 64 | 0 | 0.0 | 0.9 | 0.00 | 0.00 | 0.00 | 86 | 1012.7 |
| 20260904080055 | 64 | 0 | 0.0 | 0.9 | 0.00 | 0.00 | 0.00 | 86 | 1012.7 |
| 20260904075534 | 64 | 0 | 0.0 | 0.9 | 0.00 | 0.00 | 0.00 | 86 | 1012.7 |
| 20260904075036 | 64 | 0 | 0.0 | 0.0 | 0.00 | 0.00 | 0.00 | 86 | 1012.7 |
| 20260904074603 | 64 | 0 | 0.0 | 0.0 | 0.00 | 0.00 | 0.00 | 86 | 1012.8 |
| 20260904074036 | 64 | 0 | 0.0 | 0.9 | 0.00 | 0.00 | 0.00 | 86 | 1012.7 |
| 20260904073536 | 64 | 0 | 0.0 | 0.9 | 0.00 | 0.00 | 0.00 | 86 | 1012.6 |
| 20260904073057 | 64 | 0 | 0.0 | 0.9 | 0.00 | 0.00 | 0.00 | 86 | 1012.7 |
| 20260904072535 | 64 | 0 | 0.0 | 0.9 | 0.00 | 0.00 | 0.00 | 85 | 1012.6 |
| 20260904072034 | 64 | 0 | 0.0 | 0.0 | 0.00 | 0.00 | 0.00 | 85 | 1012.7 |
| 20260904071605 | 64 | 0 | 0.0 | 0.0 | 0.00 | 0.00 | 0.00 | 85 | 1012.7 |
| 20260904071039 | 64 | 0 | 0.0 | 0.0 | 0.00 | 0.00 | 0.00 | 85 | 1012.7 |
| 20260904070540 | 64 | 0 | 0.0 | 0.9 | 0.00 | 0.00 | 0.00 | 85 | 1012.7 |
| 20260904070106 | 64 | 0 | 0.0 | 0.9 | 0.00 | 0.00 | 0.00 | 85 | 1012.7 |
| 20260904065536 | 64 | 0 | 0.0 | 0.0 | 0.00 | 0.00 | 0.00 | 85 | 1012.7 |
| 20260904065036 | 64 | 0 | 0.0 | 0.9 | 0.00 | 0.00 | 0.00 | 85 | 1012.8 |
| 20260904064620 | 64 | 0 | 0.0 | 0.9 | 0.00 | 0.00 | 0.00 | 85 | 1012.7 |
| 20260904064036 | 65 | 309 | 0.0 | 0.9 | 0.00 | 0.00 | 0.00 | 85 | 1012.7 |
| 20260904063537 | 65 | 0 | 0.0 | 0.0 | 0.00 | 0.00 | 0.00 | 85 | 1012.7 |
| 20260904063054 | 65 | 0 | 0.0 | 0.0 | 0.00 | 0.00 | 0.00 | 85 | 1012.8 |
| 20260904062534 | 65 | 0 | 0.0 | 0.0 | 0.00 | 0.00 | 0.00 | 85 | 1012.7 |
| 20260904062035 | 65 | 0 | 0.0 | 0.0 | 0.00 | 0.00 | 0.00 | 85 | 1012.7 |
| 20260904061553 | 65 | 0 | 0.0 | 0.0 | 0.00 | 0.00 | 0.00 | 85 | 1012.7 |
| 20260904061037 | 65 | 0 | 0.0 | 0.0 | 0.00 | 0.00 | 0.00 | 85 | 1012.7 |
| 20260904060537 | 65 | 0 | 0.0 | 0.0 | 0.00 | 0.00 | 0.00 | 85 | 1012.7 |
| 20260904060054 | 65 | 0 | 0.0 | 0.0 | 0.00 | 0.00 | 0.00 | 85 | 1012.7 |
| 20260904055532 | 65 | 0 | 0.0 | 0.0 | 0.00 | 0.00 | 0.00 | 85 | 1012.7 |
| 20260904055036 | 65 | 0 | 0.0 | 0.9 | 0.00 | 0.00 | 0.00 | 85 | 1012.7 |
| 20260904054600 | 65 | 0 | 0.0 | 0.9 | 0.00 | 0.00 | 0.00 | 85 | 1012.7 |
| 20260904054036 | 65 | 0 | 0.0 | 0.9 | 0.00 | 0.00 | 0.00 | 85 | 1012.7 |
| 20260904053536 | 65 | 0 | 0.0 | 0.0 | 0.00 | 0.00 | 0.00 | 84 | 1012.7 |
| 20260904053059 | 65 | 0 | 0.0 | 0.0 | 0.00 | 0.00 | 0.00 | 84 | 1012.7 |
| 20260904052534 | 66 | 0 | 0.0 | 0.0 | 0.00 | 0.00 | 0.00 | 84 | 1012.8 |
| 20260904052034 | 66 | 0 | 0.0 | 0.0 | 0.00 | 0.00 | 0.00 | 84 | 1012.8 |
| 20260904051607 | 66 | 0 | 0.0 | 0.0 | 0.00 | 0.00 | 0.00 | 84 | 1012.8 |
| 20260904051031 | 66 | 0 | 0.0 | 0.9 | 0.00 | 0.00 | 0.00 | 84 | 1012.8 |
| 20260904050531 | 66 | 0 | 0.0 | 1.7 | 0.00 | 0.00 | 0.00 | 85 | 1012.8 |
| 20260904050142 | 66 | 0 | 0.0 | 1.7 | 0.00 | 0.00 | 0.00 | 84 | 1012.9 |
| 20260904045532 | 66 | 0 | 0.0 | 0.0 | 0.00 | 0.00 | 0.00 | 84 | 1012.8 |
| 20260904045032 | 66 | 0 | 0.0 | 0.9 | 0.00 | 0.00 | 0.00 | 84 | 1012.8 |
| 20260904044602 | 66 | 0 | 0.0 | 0.9 | 0.00 | 0.00 | 0.00 | 84 | 1012.9 |
| 20260904044031 | 66 | 0 | 0.0 | 0.9 | 0.00 | 0.00 | 0.00 | 84 | 1012.9 |
| 20260904043535 | 66 | 0 | 0.0 | 0.9 | 0.00 | 0.00 | 0.00 | 84 | 1012.8 |
| 20260904043055 | 66 | 0 | 0.0 | 0.9 | 0.00 | 0.00 | 0.00 | 84 | 1012.8 |
| 20260904042531 | 66 | 0 | 0.0 | 1.7 | 0.00 | 0.00 | 0.00 | 84 | 1012.9 |
| 20260904042032 | 66 | 0 | 0.0 | 1.7 | 0.00 | 0.00 | 0.00 | 84 | 1012.9 |
| 20260904041603 | 66 | 0 | 0.0 | 1.7 | 0.00 | 0.00 | 0.00 | 84 | 1012.9 |
| 20260904041030 | 66 | 0 | 0.0 | 1.7 | 0.00 | 0.00 | 0.00 | 84 | 1012.9 |
| 20260904040531 | 66 | 0 | 0.0 | 2.6 | 0.00 | 0.00 | 0.00 | 84 | 1012.9 |
| 20260904040054 | 66 | 217 | 0.9 | 2.6 | 0.00 | 0.00 | 0.00 | 84 | 1012.9 |
| 20260904035532 | 66 | 217 | 0.0 | 2.6 | 0.00 | 0.00 | 0.00 | 83 | 1012.8 |
| 20260904035033 | 66 | 0 | 0.0 | 2.6 | 0.00 | 0.00 | 0.00 | 83 | 1012.7 |
| 20260904034608 | 66 | 217 | 0.0 | 2.6 | 0.00 | 0.00 | 0.00 | 83 | 1012.7 |
| 20260904034035 | 67 | 0 | 0.0 | 1.7 | 0.00 | 0.00 | 0.00 | 83 | 1012.6 |
| 20260904033534 | 67 | 0 | 0.0 | 1.7 | 0.00 | 0.00 | 0.00 | 82 | 1012.6 |
| 20260904033056 | 67 | 0 | 0.0 | 1.7 | 0.00 | 0.00 | 0.00 | 82 | 1012.5 |
| 20260904032530 | 67 | 238 | 0.0 | 1.7 | 0.00 | 0.00 | 0.00 | 82 | 1012.5 |
| 20260904032030 | 67 | 238 | 0.0 | 1.7 | 0.00 | 0.00 | 0.00 | 82 | 1012.4 |
| 20260904031552 | 67 | 0 | 0.0 | 1.7 | 0.00 | 0.00 | 0.00 | 82 | 1012.4 |
| 20260904031030 | 67 | 0 | 0.0 | 2.6 | 0.00 | 0.00 | 0.00 | 82 | 1012.4 |
| 20260904030531 | 67 | 238 | 0.9 | 2.6 | 0.00 | 0.00 | 0.00 | 81 | 1012.3 |
| 20260904030052 | 67 | 238 | 0.0 | 1.7 | 0.00 | 0.00 | 0.00 | 81 | 1012.3 |
| 20260904025531 | 67 | 0 | 0.0 | 2.6 | 0.00 | 0.00 | 0.00 | 81 | 1012.4 |
| 20260904025032 | 68 | 0 | 0.9 | 2.6 | 0.00 | 0.00 | 0.00 | 80 | 1012.3 |
| 20260904024555 | 68 | 0 | 0.0 | 2.6 | 0.00 | 0.00 | 0.00 | 80 | 1012.3 |
| 20260904024033 | 68 | 286 | 0.0 | 1.7 | 0.00 | 0.00 | 0.00 | 80 | 1012.3 |
| 20260904023537 | 68 | 0 | 0.0 | 1.7 | 0.00 | 0.00 | 0.00 | 80 | 1012.4 |
| 20260904023053 | 68 | 250 | 0.0 | 3.5 | 0.00 | 0.00 | 0.00 | 80 | 1012.4 |
| 20260904022532 | 68 | 250 | 0.0 | 3.5 | 0.00 | 0.00 | 0.00 | 79 | 1012.4 |
| 20260904022033 | 69 | 230 | 0.9 | 3.5 | 0.00 | 0.00 | 0.00 | 79 | 1012.4 |
| 20260904021552 | 69 | 286 | 0.9 | 3.5 | 0.00 | 0.00 | 0.00 | 79 | 1012.4 |
| 20260904021035 | 69 | 0 | 0.0 | 2.6 | 0.00 | 0.00 | 0.00 | 79 | 1012.4 |
| 20260904020536 | 69 | 280 | 0.9 | 2.6 | 0.00 | 0.00 | 0.00 | 78 | 1012.3 |
| 20260904015535 | 69 | 310 | 1.7 | 5.2 | 0.00 | 0.00 | 0.00 | 78 | 1012.5 |
| 20260904015035 | 69 | 276 | 0.9 | 5.2 | 0.00 | 0.00 | 0.00 | 78 | 1012.4 |
| 20260904014623 | 69 | 268 | 1.7 | 6.1 | 0.00 | 0.00 | 0.00 | 79 | 1012.4 |
| 20260904014035 | 69 | 313 | 2.6 | 6.1 | 0.00 | 0.00 | 0.00 | 79 | 1012.4 |
| 20260904013535 | 70 | 288 | 1.7 | 7.0 | 0.00 | 0.00 | 0.00 | 79 | 1012.4 |
| 20260904013056 | 70 | 296 | 2.6 | 7.0 | 0.00 | 0.00 | 0.00 | 79 | 1012.5 |
| 20260904012536 | 70 | 323 | 1.7 | 6.1 | 0.00 | 0.00 | 0.00 | 79 | 1012.5 |
| 20260904012039 | 70 | 262 | 1.7 | 5.2 | 0.00 | 0.00 | 0.00 | 79 | 1012.5 |
| 20260904011601 | 70 | 288 | 1.7 | 5.2 | 0.00 | 0.00 | 0.00 | 78 | 1012.5 |
| 20260904011035 | 70 | 286 | 2.6 | 7.8 | 0.00 | 0.00 | 0.00 | 77 | 1012.6 |
| 20260904010538 | 71 | 327 | 2.6 | 7.8 | 0.00 | 0.00 | 0.00 | 77 | 1012.6 |
| 20260904005535 | 71 | 265 | 1.7 | 7.8 | 0.00 | 0.00 | 0.00 | 77 | 1012.7 |
| 20260904005035 | 71 | 308 | 3.5 | 8.7 | 0.00 | 0.00 | 0.00 | 76 | 1012.7 |
| 20260904004559 | 72 | 306 | 2.6 | 8.7 | 0.00 | 0.00 | 0.00 | 75 | 1012.5 |
| 20260904004035 | 72 | 298 | 3.5 | 8.7 | 0.00 | 0.00 | 0.00 | 75 | 1012.5 |
| 20260904003540 | 72 | 309 | 2.6 | 8.7 | 0.00 | 0.00 | 0.00 | 75 | 1012.5 |
| 20260904003109 | 73 | 261 | 3.5 | 8.7 | 0.00 | 0.00 | 0.00 | 74 | 1012.5 |
| 20260904002536 | 73 | 308 | 2.6 | 8.7 | 0.00 | 0.00 | 0.00 | 74 | 1012.5 |
| 20260904002036 | 73 | 304 | 3.5 | 7.8 | 0.00 | 0.00 | 0.00 | 73 | 1012.5 |
| 20260904001604 | 73 | 277 | 4.3 | 8.7 | 0.00 | 0.00 | 0.00 | 73 | 1012.6 |
| 20260904001034 | 73 | 300 | 3.5 | 8.7 | 0.00 | 0.00 | 0.00 | 73 | 1012.6 |
| 20260904000535 | 73 | 275 | 3.5 | 8.7 | 0.00 | 0.00 | 0.00 | 72 | 1012.7 |
| 20260903235535 | 74 | 292 | 4.3 | 8.7 | 0.00 | 0.00 | 0.00 | 72 | 1012.7 |
| 20260903235038 | 74 | 301 | 3.5 | 8.7 | 0.00 | 0.00 | 0.00 | 73 | 1012.6 |
| 20260903234600 | 74 | 309 | 4.3 | 8.7 | 0.00 | 0.00 | 0.00 | 73 | 1012.6 |
| 20260903234035 | 74 | 286 | 4.3 | 9.6 | 0.00 | 0.00 | 0.00 | 72 | 1012.7 |
| 20260903233535 | 74 | 305 | 4.3 | 9.6 | 0.00 | 0.00 | 0.00 | 73 | 1012.6 |
| 20260903233055 | 74 | 256 | 5.2 | 9.6 | 0.00 | 0.00 | 0.00 | 72 | 1012.7 |
| 20260903232535 | 74 | 234 | 2.6 | 8.7 | 0.00 | 0.00 | 0.00 | 73 | 1012.7 |
| 20260903232036 | 74 | 290 | 4.3 | 8.7 | 0.00 | 0.00 | 0.00 | 73 | 1012.7 |
| 20260903231612 | 74 | 220 | 4.3 | 10.4 | 0.00 | 0.00 | 0.00 | 74 | 1012.7 |
| 20260903231034 | 74 | 203 | 5.2 | 10.4 | 0.00 | 0.00 | 0.00 | 74 | 1012.8 |
| 20260903230532 | 74 | 266 | 3.5 | 10.4 | 0.00 | 0.00 | 0.00 | 74 | 1012.7 |
| 20260903230114 | 75 | 244 | 4.3 | 10.4 | 0.00 | 0.00 | 0.00 | 74 | 1012.7 |
| 20260903225536 | 75 | 267 | 4.3 | 10.4 | 0.00 | 0.00 | 0.00 | 74 | 1012.7 |
| 20260903225038 | 75 | 267 | 4.3 | 8.7 | 0.00 | 0.00 | 0.00 | 75 | 1012.7 |
| 20260903224558 | 75 | 232 | 4.3 | 8.7 | 0.00 | 0.00 | 0.00 | 75 | 1012.7 |
| 20260903224039 | 75 | 295 | 3.5 | 9.6 | 0.00 | 0.00 | 0.00 | 74 | 1012.8 |
| 20260903223536 | 75 | 290 | 4.3 | 9.6 | 0.00 | 0.00 | 0.00 | 74 | 1012.9 |
| 20260903223106 | 75 | 318 | 3.5 | 8.7 | 0.00 | 0.00 | 0.00 | 75 | 1012.8 |
| 20260903222535 | 75 | 279 | 3.5 | 8.7 | 0.00 | 0.00 | 0.00 | 73 | 1012.9 |
| 20260903222037 | 76 | 290 | 3.5 | 8.7 | 0.00 | 0.00 | 0.00 | 74 | 1012.8 |
| 20260903221602 | 76 | 286 | 4.3 | 9.6 | 0.00 | 0.00 | 0.00 | 74 | 1012.9 |
| 20260903221036 | 76 | 271 | 3.5 | 9.6 | 0.00 | 0.00 | 0.00 | 73 | 1013.0 |
| 20260903220537 | 76 | 291 | 3.5 | 9.6 | 0.00 | 0.00 | 0.00 | 75 | 1013.1 |
| 20260903220108 | 75 | 221 | 4.3 | 10.4 | 0.00 | 0.00 | 0.00 | 75 | 1013.1 |
| 20260903215537 | 75 | 236 | 4.3 | 10.4 | 0.00 | 0.00 | 0.00 | 75 | 1013.2 |
| 20260903215033 | 76 | 319 | 5.2 | 9.6 | 0.00 | 0.00 | 0.00 | 74 | 1013.1 |
| 20260903214600 | 76 | 273 | 3.5 | 13.9 | 0.00 | 0.00 | 0.00 | 75 | 1013.2 |
| 20260903214036 | 75 | 296 | 5.2 | 13.9 | 0.00 | 0.00 | 0.00 | 75 | 1013.2 |
| 20260903213535 | 75 | 194 | 5.2 | 10.4 | 0.00 | 0.00 | 0.00 | 75 | 1013.3 |
| 20260903213056 | 75 | 296 | 5.2 | 10.4 | 0.00 | 0.00 | 0.00 | 75 | 1013.3 |
| 20260903212535 | 76 | 242 | 4.3 | 10.4 | 0.00 | 0.00 | 0.00 | 75 | 1013.3 |
| 20260903212036 | 76 | 250 | 3.5 | 10.4 | 0.00 | 0.00 | 0.00 | 76 | 1013.3 |
| 20260903211616 | 76 | 221 | 4.3 | 10.4 | 0.00 | 0.00 | 0.00 | 74 | 1013.4 |
| 20260903211036 | 76 | 219 | 4.3 | 9.6 | 0.00 | 0.00 | 0.00 | 74 | 1013.4 |
| 20260903210540 | 76 | 223 | 5.2 | 10.4 | 0.00 | 0.00 | 0.00 | 75 | 1013.4 |
| 20260903210101 | 76 | 184 | 5.2 | 10.4 | 0.00 | 0.00 | 0.00 | 74 | 1013.3 |
| 20260903205535 | 76 | 301 | 4.3 | 10.4 | 0.00 | 0.00 | 0.00 | 74 | 1013.4 |
| 20260903205032 | 76 | 207 | 3.5 | 9.6 | 0.00 | 0.00 | 0.00 | 75 | 1013.3 |
| 20260903204603 | 76 | 281 | 4.3 | 9.6 | 0.00 | 0.00 | 0.00 | 75 | 1013.3 |
| 20260903204034 | 76 | 284 | 4.3 | 9.6 | 0.00 | 0.00 | 0.00 | 75 | 1013.3 |
| 20260903203535 | 75 | 264 | 4.3 | 9.6 | 0.00 | 0.00 | 0.00 | 74 | 1013.4 |
| 20260903203055 | 76 | 329 | 3.5 | 9.6 | 0.00 | 0.00 | 0.00 | 74 | 1013.4 |
| 20260903202539 | 76 | 281 | 4.3 | 9.6 | 0.00 | 0.00 | 0.00 | 75 | 1013.4 |
| 20260903202037 | 76 | 250 | 3.5 | 8.7 | 0.00 | 0.00 | 0.00 | 74 | 1013.4 |
| 20260903201602 | 75 | 192 | 3.5 | 9.6 | 0.00 | 0.00 | 0.00 | 75 | 1013.4 |
| 20260903201039 | 75 | 198 | 4.3 | 9.6 | 0.00 | 0.00 | 0.00 | 74 | 1013.4 |
| 20260903200535 | 75 | 283 | 3.5 | 9.6 | 0.00 | 0.00 | 0.00 | 75 | 1013.5 |
| 20260903200107 | 75 | 285 | 4.3 | 9.6 | 0.00 | 0.00 | 0.00 | 76 | 1013.6 |
| 20260903195534 | 75 | 237 | 3.5 | 8.7 | 0.00 | 0.00 | 0.00 | 76 | 1013.6 |
| 20260903195055 | 75 | 250 | 3.5 | 8.7 | 0.00 | 0.00 | 0.00 | 76 | 1013.6 |
| 20260903194555 | 74 | 227 | 3.5 | 7.8 | 0.00 | 0.00 | 0.00 | 77 | 1013.6 |
| 20260903194036 | 74 | 278 | 4.3 | 8.7 | 0.00 | 0.00 | 0.00 | 77 | 1013.7 |
| 20260903193534 | 74 | 270 | 4.3 | 8.7 | 0.00 | 0.00 | 0.00 | 78 | 1013.8 |
| 20260903193105 | 74 | 277 | 4.3 | 8.7 | 0.00 | 0.00 | 0.00 | 78 | 1013.8 |
| 20260903192535 | 74 | 240 | 3.5 | 8.7 | 0.00 | 0.00 | 0.00 | 77 | 1013.9 |
| 20260903192035 | 74 | 279 | 3.5 | 8.7 | 0.00 | 0.00 | 0.00 | 77 | 1013.9 |